Location: Campolattaro
(41.2833°N, 14.7333°E)
Time: 20:41:41
(UTC+00:00)

CZ-4C R/B - Pass Details

Date: 19 May 2025
Orbit: 425 x 537 km, 98.0° (Epoch: 15 June)

Event Time Altitude Azimuth Distance (km) Brightness Sun altitude
Rises 21:16:19 0° 15° (NNE) 2,584 7.5 -24.4°
Reaches altitude 10° 21:18:27 10° 19° (NNE) 1,676 6.3 -24.6°
Enters shadow 21:20:34 32° 30° (NNE) 836 4.5 -24.7°
